TimeEST,TemperatureF,Dew PointF,Humidity,Sea Level PressureIn,VisibilityMPH,Wind Direction,Wind SpeedMPH,Gust SpeedMPH,PrecipitationIn,Events,Conditions,WindDirDegrees,DateUTC
12:01 AM,46.4,42.8,87,29.55,10.0,South,11.5,-,N/A,,Mostly Cloudy,180,2013-02-11 05:01:00
12:38 AM,46.4,42.8,87,29.55,10.0,SSW,9.2,-,N/A,,Overcast,200,2013-02-11 05:38:00
12:53 AM,46.9,43.0,86,29.56,10.0,SSW,9.2,-,N/A,,Overcast,210,2013-02-11 05:53:00
1:53 AM,46.9,37.9,71,29.55,10.0,SW,19.6,31.1,N/A,,Partly Cloudy,220,2013-02-11 06:53:00
2:53 AM,44.1,34.0,68,29.55,10.0,SW,17.3,25.3,N/A,,Mostly Cloudy,230,2013-02-11 07:53:00
3:53 AM,43.0,32.0,65,29.56,10.0,SW,23.0,35.7,N/A,,Overcast,230,2013-02-11 08:53:00
4:53 AM,39.0,30.9,73,29.57,10.0,WSW,20.7,33.4,N/A,,Overcast,240,2013-02-11 09:53:00
5:53 AM,37.9,30.0,73,29.60,10.0,WSW,23.0,38.0,N/A,,Overcast,240,2013-02-11 10:53:00
6:32 AM,37.4,28.4,70,29.59,10.0,WSW,21.9,33.4,N/A,,Overcast,240,2013-02-11 11:32:00
6:53 AM,36.0,28.0,73,29.62,9.0,WSW,28.8,43.7,N/A,,Overcast,240,2013-02-11 11:53:00
7:53 AM,35.1,25.0,67,29.65,10.0,WSW,28.8,41.4,0.00,,Overcast,250,2013-02-11 12:53:00
8:53 AM,35.1,24.1,64,29.67,10.0,WSW,29.9,44.9,N/A,,Overcast,240,2013-02-11 13:53:00
9:53 AM,35.1,25.0,67,29.67,10.0,WSW,26.5,39.1,N/A,,Overcast,240,2013-02-11 14:53:00
10:42 AM,35.6,24.8,65,29.66,10.0,WSW,27.6,41.4,N/A,,Overcast,240,2013-02-11 15:42:00
10:53 AM,35.1,26.1,70,29.68,10.0,WSW,25.3,35.7,N/A,,Overcast,240,2013-02-11 15:53:00
11:50 AM,33.8,26.6,75,29.69,1.8,WSW,24.2,36.8,0.00,Snow,Light Snow,240,2013-02-11 16:50:00
11:51 AM,34.0,27.0,75,29.71,1.5,WSW,27.6,36.8,0.00,Snow,Light Snow,240,2013-02-11 16:51:00
12:14 PM,33.8,26.6,75,29.70,3.0,WSW,25.3,38.0,0.00,Snow,Light Snow,240,2013-02-11 17:14:00
12:53 PM,34.0,26.1,73,29.72,6.0,WSW,28.8,42.6,0.00,,Haze,250,2013-02-11 17:53:00
1:53 PM,34.0,26.1,73,29.75,10.0,WSW,26.5,40.3,N/A,,Overcast,250,2013-02-11 18:53:00
2:53 PM,34.0,26.1,73,29.78,10.0,WSW,28.8,39.1,N/A,,Overcast,250,2013-02-11 19:53:00
3:53 PM,34.0,25.0,70,29.81,10.0,WSW,26.5,39.1,N/A,,Overcast,250,2013-02-11 20:53:00
4:53 PM,33.1,24.1,70,29.84,10.0,West,28.8,41.4,N/A,,Overcast,270,2013-02-11 21:53:00
5:53 PM,32.0,23.0,69,29.86,10.0,West,27.6,39.1,N/A,,Overcast,260,2013-02-11 22:53:00
6:53 PM,32.0,23.0,69,29.91,10.0,West,27.6,39.1,N/A,,Overcast,270,2013-02-11 23:53:00
7:53 PM,32.0,21.9,66,29.93,10.0,West,24.2,38.0,N/A,,Overcast,280,2013-02-12 00:53:00
8:53 PM,32.0,21.9,66,29.94,10.0,West,23.0,33.4,N/A,,Overcast,280,2013-02-12 01:53:00
9:53 PM,30.9,23.0,72,29.96,10.0,West,19.6,29.9,N/A,,Overcast,280,2013-02-12 02:53:00
10:53 PM,30.9,21.9,69,29.97,10.0,West,18.4,31.1,N/A,,Overcast,280,2013-02-12 03:53:00
11:53 PM,30.9,21.9,69,29.99,10.0,West,16.1,25.3,N/A,,Overcast,280,2013-02-12 04:53:00